This is the latest recevied weather packets stored in our database for station/object IW1QQG-13. If no packets are shown the sender has not sent any weather packets the latest 10 day(s).
| Time | Temp. | Humidity | Pressure | Rain* | Wind** | Luminosity | Snow |
|---|---|---|---|---|---|---|---|
| 1787857183 | 78° F | 84% | 762.3 mmHg | 0 in | - | 0 W/m² | - |
| 1787856583 | 78° F | 83% | 762.5 mmHg | 0 in | - | 0 W/m² | - |
| 1787855983 | 79° F | 86% | 762.3 mmHg | 0 in | - | 0 W/m² | - |
| 1787855383 | 79° F | 85% | 761.8 mmHg | 0 in | - | 0 W/m² | - |
| 1787854783 | 79° F | 84% | 761.8 mmHg | 0 in | - | 1 W/m² | - |
| 1787854183 | 80° F | 83% | 761.5 mmHg | 0 in | - | 3 W/m² | - |
| 1787853583 | 80° F | 83% | 761.5 mmHg | 0 in | - | 4 W/m² | - |
| 1787852983 | 80° F | 82% | 761.5 mmHg | 0 in | - | 8 W/m² | - |
| 1787852383 | 81° F | 81% | 761.5 mmHg | 0 in | - | 12 W/m² | - |
| 1787851783 | 81° F | 81% | 761.5 mmHg | 0 in | - | 42 W/m² | - |
| 1787851183 | 81° F | 81% | 761.5 mmHg | 0 in | - | 46 W/m² | - |
| 1787850583 | 81° F | 80% | 761.8 mmHg | 0 in | - | 32 W/m² | - |
| 1787849983 | 81° F | 80% | 762 mmHg | 0 in | - | 38 W/m² | - |
| 1787849383 | 81° F | 79% | 762 mmHg | 0 in | - | 36 W/m² | - |
| 1787848783 | 82° F | 78% | 762.3 mmHg | 0 in | - | 41 W/m² | - |
| 1787848183 | 83° F | 77% | 762 mmHg | 0 in | - | 68 W/m² | - |
| 1787847583 | 83° F | 76% | 762 mmHg | 0 in | - | 79 W/m² | - |
| 1787846983 | 84° F | 75% | 762.3 mmHg | 0 in | - | 98 W/m² | - |
| 1787846383 | 84° F | 75% | 762.3 mmHg | 0 in | - | 110 W/m² | - |
| 1787845783 | 84° F | 74% | 762.3 mmHg | 0 in | - | 130 W/m² | - |
| 1787845183 | 84° F | 73% | 762.5 mmHg | 0 in | - | 112 W/m² | - |
| 1787844583 | 84° F | 73% | 762.7 mmHg | 0 in | - | 198 W/m² | - |
| 1787843983 | 84° F | 72% | 762.7 mmHg | 0 in | - | 120 W/m² | - |
| 1787843383 | 84° F | 74% | 763 mmHg | 0 in | - | 244 W/m² | - |
| 1787842783 | 84° F | 74% | 763 mmHg | 0 in | - | 274 W/m² | - |
* Rain latest hour (hover to see other rain measurements)
** Current wind speed in m/s (hover to see current wind gust speed)